DK8PN Weather Reports


time (UTC)temp
C
wind
direction
speed
KPH
gust
KPH
rain 1hr
cm
rain 24hr
cm
rain mn
cm
humidity
%
barometer
mb
20260906084543 19 96 0.0 9.7 0.00 0.00 0.00 61 1025.2
20260906083040 19 290 0.0 0.0 0.00 0.00 0.00 63 1025.2
20260906081547 18 290 0.0 0.0 0.00 0.00 0.00 64 1025.4
20260906080041 18 290 0.0 0.0 0.00 0.00 0.00 68 1025.5
20260906074533 16 290 0.0 0.0 0.00 0.00 0.00 75 1025.5
20260906073027 16 290 0.0 0.0 0.00 0.00 0.00 75 1025.6
20260906071523 14 290 0.0 0.0 0.00 0.00 0.00 80 1025.5
20260906070016 13 290 0.0 0.0 0.00 0.00 0.00 84 1025.5
20260906064513 12 290 0.0 0.0 0.00 0.00 0.00 84 1025.6
20260906063009 11 289 0.0 0.0 0.00 0.00 0.00 89 1025.7
20260906061506 10 290 0.0 0.0 0.00 0.00 0.00 90 1025.6
20260906060001 10 289 0.0 0.0 0.00 0.00 0.00 91 1025.6
20260906054557 10 289 0.0 0.0 0.00 0.00 0.00 92 1025.4
20260906053054 8 289 0.0 0.0 0.00 0.00 0.00 91 1025.2
20260906051550 8 289 0.0 0.0 0.00 0.00 0.00 91 1025.3
20260906050055 8 288 0.0 0.0 0.00 0.00 0.00 91 1025.1
20260906044546 8 288 0.0 0.0 0.00 0.00 0.00 91 1025.0
20260906043048 8 288 0.0 0.0 0.00 0.00 0.00 91 1025.1
20260906041547 8 288 0.0 0.0 0.00 0.00 0.00 91 1025.3
20260906040042 8 288 0.0 0.0 0.00 0.00 0.00 91 1025.0
20260906034548 8 288 0.0 0.0 0.00 0.15 0.00 91 1025.0
20260906033040 8 288 0.0 0.0 0.00 0.15 0.00 91 1025.0
20260906031547 8 288 0.0 0.0 0.00 0.15 0.00 91 1025.1
20260906030034 8 288 0.0 0.0 0.00 0.15 0.00 91 1025.0
20260906024533 9 288 0.0 0.0 0.00 0.61 0.00 91 1024.9
20260906023033 9 288 0.0 0.0 0.00 0.61 0.00 91 1024.9
20260906021532 9 288 0.0 0.0 0.00 0.61 0.00 90 1024.9
20260906020038 9 288 0.0 0.0 0.00 0.61 0.00 90 1024.9
20260906014533 9 288 0.0 0.0 0.00 0.71 0.00 90 1024.8
20260906013028 9 288 0.0 0.0 0.00 0.71 0.00 90 1024.8
20260906011527 9 288 0.0 0.0 0.00 0.71 0.00 90 1024.7
20260906010024 10 288 0.0 0.0 0.00 0.71 0.00 90 1024.8
20260906004522 10 288 0.0 0.0 0.00 0.71 0.00 89 1024.7
20260906003025 10 288 0.0 0.0 0.00 0.71 0.00 89 1024.7
20260906001519 10 288 0.0 0.0 0.00 0.71 0.00 89 1024.6
20260906000018 10 288 0.0 0.0 0.00 0.71 0.00 89 1024.5
20260905234514 10 288 0.0 0.0 0.00 0.71 0.00 89 1024.5
20260905233014 11 288 0.0 0.0 0.00 0.71 0.00 88 1024.4
20260905231512 11 288 0.0 0.0 0.00 0.71 0.00 88 1024.2
20260905230011 11 288 0.0 0.0 0.00 0.71 0.00 88 1024.1
20260905224507 11 288 0.0 0.0 0.00 0.71 0.00 88 1024.1
20260905223020 11 288 0.0 0.0 0.00 0.71 0.00 87 1023.9
20260905221505 12 288 0.0 0.0 0.00 0.71 0.00 86 1023.8
20260905220104 12 288 0.0 0.0 0.00 0.71 0.00 86 1023.7
20260905214556 12 288 0.0 0.0 0.00 0.71 0.71 85 1023.4
20260905213100 12 288 0.0 0.0 0.00 0.71 0.71 86 1023.2
20260905211552 12 288 0.0 0.0 0.00 0.71 0.71 84 1023.0
20260905210105 13 288 0.0 0.0 0.00 0.71 0.71 82 1022.9
20260905204546 13 288 0.0 0.0 0.00 0.71 0.71 81 1022.8
20260905203045 14 288 0.0 0.0 0.00 0.71 0.71 81 1022.7
20260905201543 14 288 0.0 0.0 0.00 0.71 0.71 79 1022.7
20260905200055 15 288 0.0 0.0 0.00 0.71 0.71 74 1022.4
20260905194540 15 288 0.0 0.0 0.00 0.71 0.71 73 1022.2
20260905193038 16 288 0.0 0.0 0.00 0.71 0.71 71 1022.1
20260905191541 16 288 0.0 0.0 0.00 0.71 0.71 71 1021.9
20260905190035 17 288 0.0 0.0 0.00 0.71 0.71 65 1021.8
20260905184535 17 288 0.0 0.0 0.00 0.71 0.71 66 1021.6
20260905183029 18 288 0.0 0.0 0.00 0.71 0.71 60 1021.3
20260905181527 20 288 0.0 0.0 0.00 0.71 0.71 50 1021.1
20260905180024 21 288 0.0 1.6 0.00 0.71 0.71 49 1021.0
20260905174523 21 289 0.0 1.6 0.00 0.71 0.71 46 1020.9
20260905173023 22 271 0.0 12.9 0.00 0.71 0.71 45 1020.6
20260905171536 22 262 3.2 16.1 0.00 0.71 0.71 44 1020.6
20260905170027 23 299 0.0 17.7 0.00 0.71 0.71 45 1020.4
20260905164518 23 310 3.2 16.1 0.00 0.71 0.71 44 1020.4
20260905163019 23 251 3.2 16.1 0.00 0.71 0.71 44 1020.2
20260905161520 23 261 1.6 22.5 0.00 0.71 0.71 42 1020.1
20260905160027 23 314 8.0 20.9 0.00 0.71 0.71 45 1019.9
20260905154525 23 250 8.0 20.9 0.00 0.71 0.71 45 1019.9
20260905153016 23 312 6.4 24.1 0.00 0.71 0.71 45 1020.0
20260905151515 23 190 0.0 22.5 0.00 0.71 0.71 48 1019.8
20260905150011 23 267 8.0 24.1 0.00 0.71 0.71 46 1019.8
20260905144510 23 303 9.7 27.4 0.00 0.71 0.71 46 1019.8
20260905143009 23 263 12.9 24.1 0.00 0.71 0.71 45 1019.8
20260905141508 23 259 8.0 20.9 0.00 0.71 0.71 48 1019.7
20260905140007 23 284 12.9 29.0 0.00 0.71 0.71 49 1019.7
20260905134509 23 292 16.1 30.6 0.00 0.71 0.71 48 1019.7
20260905133006 23 272 6.4 24.1 0.00 0.71 0.71 50 1019.7
20260905131505 23 304 11.3 22.5 0.00 0.71 0.71 51 1019.8
20260905130001 23 277 11.3 22.5 0.00 0.71 0.71 53 1019.9
20260905124500 23 290 4.8 20.9 0.00 0.71 0.71 56 1020.0
20260905123000 22 266 8.0 27.4 0.00 0.71 0.71 57 1019.9
20260905121600 22 267 9.7 22.5 0.00 0.71 0.71 58 1019.8
20260905120100 23 294 4.8 25.7 0.00 0.71 0.71 59 1020.0
20260905114610 22 275 4.8 38.6 0.00 0.71 0.71 59 1020.1
20260905113055 22 275 11.3 24.1 0.00 0.71 0.71 57 1019.9
20260905111606 22 261 9.7 27.4 0.00 0.71 0.71 60 1020.0
20260905110055 21 255 12.9 38.6 0.00 0.71 0.71 61 1020.0
20260905104552 21 303 11.3 25.7 0.00 0.71 0.71 63 1019.9
20260905103051 20 229 12.9 20.9 0.00 0.71 0.71 69 1019.9
20260905101548 20 302 3.2 17.7 0.00 0.71 0.71 72 1019.9
20260905100049 20 292 9.7 27.4 0.00 0.71 0.71 71 1019.9
20260905094559 20 248 4.8 17.7 0.00 0.71 0.71 75 1019.9
20260905093045 20 288 9.7 25.7 0.00 0.71 0.71 76 1019.8
20260905091546 19 273 6.4 19.3 0.00 0.71 0.71 81 1019.7
20260905090039 18 308 4.8 17.7 0.00 0.71 0.71 84 1019.6